Location: Unspecified
(33.9239°N, 118.0544°W)
Time: 05:10:13
(UTC-07:00)

Resurs 1-4 Rocket - Visible Passes

Search period start: 30 July 2015 00:00
Search period end: 09 August 2015 00:00
Orbit: 800 x 815 km, 98.4° (Epoch: 30 July)

Date Brightness Start Highest point End Pass type
(mag) Time Alt. Az. Time Alt. Az. Time Alt. Az.
30 Jul 2.8 03:51:12 10° NNE 03:56:16 50° E 03:59:13 24° SSE visible
30 Jul 3.7 05:32:23 10° NNW 05:35:48 17° WNW 05:38:59 10° WSW visible
31 Jul 3.7 03:27:13 10° NE 03:31:39 28° E 03:34:21 19° SE visible
31 Jul 3.1 05:06:59 10° NNW 05:11:29 29° WNW 05:15:26 12° SW visible
01 Aug 4.4 03:03:51 10° NE 03:06:54 16° E 03:09:30 12° SE visible
01 Aug 2.4 04:42:03 10° N 04:47:07 50° WNW 04:50:35 20° SW visible
02 Aug 2.0 04:17:24 10° NNE 04:22:41 87° WNW 04:25:43 26° SSW visible
03 Aug 2.7 03:53:02 10° NNE 03:58:10 53° E 04:00:52 27° SSE visible
03 Aug 3.8 05:34:24 10° NNW 05:37:40 16° WNW 05:40:41 10° WSW visible
04 Aug 3.6 03:29:01 10° NE 03:33:33 30° E 03:36:00 21° SE visible
04 Aug 3.2 05:08:55 10° NNW 05:13:21 27° WNW 05:17:05 13° WSW visible
05 Aug 4.3 03:05:35 10° NE 03:08:49 17° E 03:11:08 14° ESE visible
05 Aug 2.4 04:43:57 10° N 04:48:59 47° WNW 04:52:13 21° SW visible
06 Aug 2.0 04:19:18 10° N 04:24:34 83° WNW 04:27:22 29° SSW visible
07 Aug 2.6 03:54:54 10° NNE 04:00:03 56° E 04:02:30 30° SSE visible
07 Aug 3.8 05:36:26 10° NNW 05:39:31 15° WNW 05:42:22 10° W visible
08 Aug 3.5 03:30:50 10° NE 03:35:27 32° E 03:37:38 23° SE visible
08 Aug 3.2 05:10:52 10° NNW 05:15:13 26° WNW 05:18:43 13° WSW visible
